West Plains, MO

3:24 PM CDT on April 21, 2018 (GMT -0500)
West Plains Municipal

Weather History for KUNO - April, 2014

Change the Weather History Date:

Wednesday, April 30, 2014

  Actual Average Record
Temperature  
Mean Temperature 49 °F 61 °F  
Max Temperature 57 °F 73 °F 90 °F (1987)
Min Temperature 41 °F 49 °F 35 °F (1963)
Degree Days  
Heating Degree Days 16 5  
Month to date heating degree days 252 252  
Since 1 July heating degree days 4752 4262  
Cooling Degree Days 0 1  
Month to date cooling degree days 9 24  
Year to date cooling degree days 9 28  
Moisture  
Dew Point 37 °F    
Average Humidity 63    
Maximum Humidity 83    
Minimum Humidity 43    
Precipitation  
Precipitation T in 0.16 in 2.58 in (1994)
Month to date precipitation 4.10 4.48  
Year to date precipitation 9.17 14.33  
Sea Level Pressure  
Sea Level Pressure 29.90 in    
Wind  
Wind Speed 9 mph (West)    
Max Wind Speed 17 mph    
Max Gust Speed 25 mph    
Visibility 10 miles    
Events      
T = Trace of Precipitation, MM = Missing Value Source: NWS Daily Summary

Daily Weather History Graph

Daily Weather History Graph

Search for Another Location

Airport or City:

Astronomy

Apr. 30, 2014 Rise Set
Actual Time 6:14 AM CDT 7:55 PM CDT
Civil Twilight 5:46 AM CDT 8:23 PM CDT
Nautical Twilight 5:13 AM CDT 8:56 PM CDT
Astronomical Twilight 4:37 AM CDT 9:32 PM CDT
Moon 7:16 AM CDT (4/30) 9:33 PM CDT (4/30)
Length of Visible Light 14h 36m
Length of Day
13h 40m
New Moon, 2% of the Moon is Illuminated
Apr 30
New Moon
May 6
First Quarter
May 14
Full
May 21
Last Quarter
May 28
New

Hourly Weather History & Observations

Time (CDT) Temp. Windchill Dew Point Humidity Pressure Visibility Wind Dir Wind Speed Gust Speed Precip Events Conditions
12:25 AM 46.9 °F - 39.0 °F 74% 29.82 in 10.0 mi West 11.5 mph 17.3 mph N/A   Mostly Cloudy
12:48 AM 46.4 °F 40.7 °F 39.2 °F 76% 29.82 in 10.0 mi WNW 12.7 mph - N/A   Overcast
12:53 AM 46.9 °F - 39.0 °F 74% 29.82 in 10.0 mi West 9.2 mph 19.6 mph N/A   Overcast
1:05 AM 46.0 °F 41.0 °F 39.0 °F 76% 29.83 in 10.0 mi WNW 10.4 mph - N/A   Overcast
1:39 AM 46.0 °F 41.9 °F 39.0 °F 76% 29.82 in 10.0 mi West 8.1 mph - N/A   Overcast
1:53 AM 46.9 °F - 39.0 °F 74% 29.81 in 10.0 mi West 10.4 mph - N/A   Overcast
2:53 AM 46.0 °F 43.1 °F 39.0 °F 76% 29.82 in 10.0 mi West 5.8 mph - N/A   Overcast
3:45 AM 45.0 °F 40.6 °F 39.9 °F 82% 29.83 in 10.0 mi WNW 8.1 mph - 0.00 in   Overcast
3:53 AM 45.0 °F 40.1 °F 39.9 °F 82% 29.83 in 10.0 mi WNW 9.2 mph - 0.00 in   Overcast
4:27 AM 45.0 °F 40.1 °F 39.9 °F 82% 29.83 in 10.0 mi West 9.2 mph - N/A   Overcast
4:39 AM 45.0 °F 40.1 °F 39.9 °F 82% 29.83 in 10.0 mi West 9.2 mph - N/A   Overcast
4:53 AM 45.0 °F 40.6 °F 39.9 °F 82% 29.84 in 10.0 mi West 8.1 mph - N/A   Overcast
5:02 AM 45.0 °F 41.8 °F 39.9 °F 82% 29.85 in 10.0 mi West 5.8 mph - N/A   Overcast
5:33 AM 45.0 °F 41.2 °F 39.9 °F 82% 29.85 in 10.0 mi West 6.9 mph - N/A   Overcast
6:07 AM 44.1 °F 39.5 °F 41.0 °F 89% 29.86 in 10.0 mi WNW 8.1 mph - N/A   Overcast
6:37 AM 45.0 °F 41.2 °F 39.0 °F 80% 29.87 in 10.0 mi NW 6.9 mph - N/A   Overcast
6:53 AM 45.0 °F 41.8 °F 39.0 °F 80% 29.88 in 10.0 mi WNW 5.8 mph - N/A   Overcast
7:17 AM 45.0 °F 41.2 °F 39.9 °F 82% 29.88 in 10.0 mi WNW 6.9 mph - N/A   Overcast
7:53 AM 44.1 °F 39.0 °F 39.9 °F 85% 29.89 in 5.0 mi NW 9.2 mph - N/A   Overcast
8:12 AM 45.0 °F 39.7 °F 37.9 °F 76% 29.90 in 10.0 mi NW 10.4 mph 17.3 mph N/A   Overcast
8:50 AM 46.4 °F 41.1 °F 37.4 °F 71% 29.90 in 10.0 mi NW 11.5 mph - N/A   Overcast
8:53 AM 46.0 °F 40.2 °F 37.0 °F 71% 29.91 in 10.0 mi NW 12.7 mph - N/A   Overcast
10:31 AM 46.0 °F 41.4 °F 37.9 °F 73% 29.93 in 10.0 mi West 9.2 mph - N/A   Overcast
10:43 AM 46.9 °F - 37.9 °F 71% 29.94 in 10.0 mi West 12.7 mph - N/A   Overcast
10:53 AM 46.9 °F - 37.0 °F 68% 29.95 in 10.0 mi West 9.2 mph - N/A   Overcast
11:00 AM 46.9 °F - 37.0 °F 68% 29.95 in 10.0 mi West 8.1 mph - N/A   Overcast
11:27 AM 48.0 °F - 35.1 °F 61% 29.95 in 10.0 mi West 11.5 mph 19.6 mph N/A   Overcast
11:53 AM 48.9 °F - 34.0 °F 56% 29.96 in 10.0 mi NW 9.2 mph - N/A   Overcast
12:53 PM 50.0 °F - 36.0 °F 59% 29.97 in 10.0 mi NW 10.4 mph - N/A   Overcast
1:53 PM 52.0 °F - 34.0 °F 50% 29.96 in 10.0 mi WNW 11.5 mph 21.9 mph N/A   Overcast
2:53 PM 55.0 °F - 34.0 °F 45% 29.96 in 10.0 mi West 16.1 mph 19.6 mph N/A   Overcast
3:53 PM 54.0 °F - 33.1 °F 45% 29.95 in 10.0 mi West 9.2 mph - N/A   Mostly Cloudy
4:53 PM 54.0 °F - 32.0 °F 43% 29.95 in 10.0 mi West 10.4 mph 19.6 mph N/A   Overcast
5:53 PM 54.0 °F - 34.0 °F 47% 29.95 in 10.0 mi West 9.2 mph - N/A   Mostly Cloudy
7:53 PM 51.1 °F - 33.1 °F 50% 29.99 in 10.0 mi WNW 5.8 mph - N/A   Overcast
8:53 PM 46.0 °F 44.8 °F 33.1 °F 61% 30.00 in 10.0 mi WSW 3.5 mph - N/A   Mostly Cloudy
9:53 PM 45.0 °F 43.5 °F 34.0 °F 65% 30.02 in 10.0 mi WSW 3.5 mph - N/A   Scattered Clouds
10:53 PM 43.0 °F 40.3 °F 34.0 °F 71% 30.01 in 10.0 mi SW 4.6 mph - N/A   Clear
11:53 PM 42.1 °F 39.2 °F 34.0 °F 73% 30.00 in 10.0 mi SSW 4.6 mph - N/A   Clear